Temp
10 10 10 10 10 10 10 11 11 11 12 12 12 12 12 12 12 12 11 12 12 11 11 12 12 12 12 12 12 11 10 11 11 11 11 12 12 12 12 12 12 11 11 10 12
9 9 9 9 9 10 10 10 10 11 11 12 12 12 12 12 12 12 11 12 12 12 12 12 12 12 12 12 12 12 12 12 11 11 11 12 12 12 12 12 11 11 11 10 11
8 8 8 8 9 9 9 10 10 10 10 11 12 12 12 12 12 12 12 12 12 12 11 11 10 11 11 11 12 13 13 12 11 11 11 11 12 12 12 12 12 11 11 11 11
7 8 8 8 8 8 9 9 9 10 10 10 11 12 12 12 12 12 12 12 12 11 11 11 11 11 11 11 12 12 13 12 11 11 11 11 11 12 12 12 11 11 11 12 11
7 7 7 8 8 8 8 8 9 9 9 10 10 11 12 12 12 12 12 12 12 11 11 12 12 12 11 12 12 12 12 12 11 11 11 11 12 12 12 12 12 12 11 10 11
7 7 7 7 8 8 8 8 8 9 9 9 10 11 11 12 12 12 12 11 12 11 11 11 11 11 11 11 11 12 12 12 11 11 12 12 12 12 13 12 13 12 12 11 11
7 7 7 7 8 8 8 8 8 9 9 9 9 11 11 11 12 12 12 12 11 11 10 10 10 10 10 10 11 11 12 12 11 11 12 12 12 13 12 13 13 12 12 12 11
7 7 7 7 7 7 7 7 8 9 8 8 9 10 10 11 11 11 11 11 11 11 10 9 10 9 9 10 10 11 10 11 12 11 12 12 12 12 12 13 13 13 13 13 12
7 6 6 7 7 7 7 7 8 8 8 8 8 9 9 9 10 10 10 10 9 10 10 9 8 9 8 9 9 10 11 11 12 11 12 12 12 12 12 12 13 12 13 13 12
6 6 6 7 7 7 7 7 8 8 7 7 7 8 8 8 8 9 9 9 9 9 9 8 8 8 8 8 10 10 10 11 11 11 11 12 12 12 13 12 13 13 13 13 13
6 6 6 7 8 8 7 7 7 8 6 7 6 6 7 7 7 7 8 8 8 7 8 8 8 10 10 9 8 9 9 11 12 11 11 12 11 13 13 13 13 13 13 14 13
6 6 6 7 7 7 8 7 7 7 6 6 6 6 7 7 6 6 6 7 7 7 7 7 8 10 9 9 8 8 9 10 11 12 11 12 12 13 13 13 13 13 13 13 13
6 5 6 6 6 6 6 7 7 7 7 5 5 6 6 5 5 5 6 6 6 6 7 6 8 8 9 8 8 8 8 9 11 11 11 11 12 12 13 13 12 12 12 12 12
5 5 5 5 5 5 5 5 5 5 5 4 4 5 5 5 5 5 5 6 5 5 6 6 7 8 8 8 9 8 10 9 10 10 12 11 14 13 13 14 13 13 13 12 12
5 5 5 5 5 4 4 4 4 4 6 4 3 4 5 5 5 5 6 5 6 6 6 6 7 7 7 8 8 8 9 10 9 9 10 11 11 14 13 13 14 14 14 13 12
5 5 4 4 4 4 4 4 4 4 4 3 3 3 3 4 4 5 5 6 6 6 6 6 7 7 7 8 8 8 8 8 8 9 10 11 11 13 12 13 14 14 14 14 13
5 4 4 4 4 4 4 4 3 4 3 1 2 2 3 3 4 4 5 5 6 6 6 6 6 7 7 7 7 7 8 9 9 10 11 12 11 12 12 13 14 14 14 14 14
4 4 4 4 3 4 4 3 3 2 2 0 0 1 1 1 2 3 3 3 4 5 5 6 7 7 7 7 8 7 8 10 10 12 13 11 11 12 12 13 13 14 14 14 14
4 3 4 3 3 3 3 2 2 1 0 -0 -0 -0 -0 -0 1 1 1 2 2 3 4 4 5 6 7 7 7 7 7 9 10 9 11 13 11 11 12 12 13 14 14 15 15
3 3 3 3 3 3 2 1 0 -0 -1 -1 -1 -1 -1 -1 -1 -0 0 1 1 2 2 2 3 5 6 7 7 8 8 8 8 10 10 12 12 13 13 12 13 14 14 15 16
3 3 2 2 2 1 1 -0 -1 -1 -2 -2 -2 -2 -2 -2 -1 -1 -1 -0 0 0 1 1 1 4 5 6 7 7 7 8 9 9 12 12 12 12 12 13 14 14 14 15 16
2 2 2 1 1 0 -1 -1 -2 -2 -2 -3 -3 -3 -3 -3 -2 -2 -2 -1 -1 -1 -1 0 -0 1 3 4 6 6 6 7 8 9 9 11 12 12 13 13 14 14 15 15 16
2 1 1 1 0 -1 -2 -2 -3 -3 -3 -4 -4 -4 -4 -4 -4 -3 -3 -2 -2 -2 -2 -2 -2 0 4 4 4 3 5 6 7 7 8 10 11 11 12 13 13 14 15 15 16
1 1 0 0 -1 -2 -3 -4 -4 -4 -4 -5 -5 -5 -5 -5 -5 -5 -4 -4 -3 -3 -3 -3 -2 -1 2 0 -1 0 2 3 2 6 8 9 10 10 11 13 13 14 14 15 16
1 -0 -0 -1 -2 -3 -3 -4 -4 -5 -5 -5 -5 -5 -6 -5 -5 -5 -6 -5 -5 -4 -4 -4 -4 -3 -2 -2 -1 -0 1 1 0 3 6 9 8 9 11 12 13 14 14 14 14
0 -0 -1 -2 -3 -4 -4 -6 -5 -6 -6 -6 -6 -6 -6 -6 -6 -6 -5 -5 -5 -4 -4 -4 -4 -4 -2 -1 -2 0 1 2 1 2 2 6 8 9 10 12 12 13 14 14 15
1 1 -0 -3 -4 -5 -6 -6 -5 -6 -6 -6 -6 -6 -6 -6 -6 -6 -6 -5 -5 -5 -5 -5 -5 -4 -2 -3 -3 0 2 4 2 2 3 5 8 10 10 11 12 12 13 14 15
Height
3145 3143 3142 3140 3138 3136 3134 3133 3132 3131 3131 3130 3130 3131 3131 3131 3131 3131 3131 3132 3133 3134 3137 3139 3142 3146 3148 3152 3154 3156 3159 3158 3159 3160 3161 3162 3163 3165 3167 3167 3167 3169 3169 3171 3174
3143 3141 3139 3138 3135 3133 3132 3130 3129 3128 3127 3126 3126 3126 3127 3128 3128 3129 3129 3129 3130 3133 3135 3139 3141 3144 3146 3149 3153 3155 3157 3158 3160 3160 3160 3162 3164 3166 3167 3167 3167 3167 3169 3171 3175
3142 3140 3138 3135 3133 3131 3129 3127 3125 3124 3123 3123 3121 3122 3123 3124 3126 3125 3126 3126 3128 3131 3133 3136 3139 3143 3145 3148 3151 3154 3156 3158 3159 3160 3161 3161 3164 3165 3167 3167 3167 3166 3168 3170 3175
3141 3139 3136 3134 3131 3128 3126 3124 3122 3121 3119 3118 3118 3117 3118 3120 3124 3121 3122 3123 3125 3128 3130 3133 3136 3140 3143 3146 3148 3152 3155 3157 3159 3160 3161 3161 3163 3165 3167 3168 3168 3168 3169 3172 3174
3139 3136 3134 3132 3128 3125 3124 3122 3119 3117 3116 3114 3113 3113 3113 3115 3118 3119 3121 3122 3123 3125 3128 3131 3135 3137 3141 3144 3147 3149 3153 3155 3157 3158 3160 3160 3162 3164 3166 3166 3167 3168 3169 3171 3176
3137 3134 3132 3129 3126 3123 3121 3119 3116 3114 3111 3110 3108 3108 3109 3110 3112 3114 3116 3119 3121 3123 3125 3129 3133 3138 3140 3141 3144 3146 3150 3153 3155 3156 3158 3159 3161 3162 3164 3165 3167 3167 3168 3170 3174
3135 3131 3128 3126 3122 3120 3118 3116 3114 3111 3107 3106 3104 3103 3103 3105 3107 3109 3111 3115 3117 3120 3123 3128 3131 3135 3138 3139 3141 3145 3147 3149 3152 3155 3157 3158 3159 3159 3162 3164 3166 3167 3167 3169 3173
3132 3128 3124 3121 3118 3115 3113 3112 3111 3107 3103 3103 3101 3100 3099 3099 3101 3103 3107 3110 3113 3116 3119 3125 3128 3132 3134 3136 3138 3141 3144 3146 3149 3152 3154 3157 3158 3158 3161 3163 3165 3166 3168 3169 3173
3129 3125 3120 3116 3113 3110 3108 3107 3106 3103 3100 3100 3099 3099 3097 3096 3096 3099 3103 3106 3110 3112 3116 3120 3124 3127 3130 3133 3136 3136 3139 3142 3146 3149 3153 3154 3156 3157 3159 3161 3164 3165 3167 3169 3172
3125 3121 3117 3113 3109 3107 3105 3103 3102 3100 3098 3098 3098 3099 3098 3095 3095 3096 3099 3103 3107 3109 3112 3116 3118 3121 3124 3127 3129 3133 3135 3138 3142 3147 3149 3151 3153 3155 3157 3160 3162 3164 3166 3167 3170
3121 3118 3114 3110 3106 3103 3102 3101 3102 3100 3097 3098 3098 3097 3095 3094 3093 3093 3096 3101 3103 3106 3108 3111 3112 3108 3117 3124 3129 3132 3134 3138 3140 3144 3147 3148 3150 3152 3155 3157 3158 3161 3164 3166 3169
3118 3114 3110 3106 3103 3101 3099 3097 3096 3098 3096 3095 3095 3095 3094 3093 3093 3093 3095 3098 3099 3100 3104 3108 3105 3114 3119 3121 3126 3129 3132 3136 3139 3142 3144 3146 3147 3149 3150 3154 3156 3159 3162 3165 3167
3113 3111 3107 3103 3100 3097 3095 3093 3092 3093 3094 3093 3092 3093 3094 3094 3093 3093 3095 3095 3097 3099 3101 3103 3108 3110 3114 3118 3121 3124 3128 3132 3137 3139 3140 3143 3143 3143 3145 3148 3150 3154 3158 3162 3165
3109 3108 3105 3101 3098 3092 3090 3089 3088 3089 3090 3092 3091 3092 3093 3092 3093 3093 3092 3095 3095 3098 3101 3103 3106 3106 3109 3113 3119 3120 3125 3129 3132 3136 3136 3138 3136 3136 3139 3142 3145 3149 3152 3157 3161
3106 3104 3100 3095 3093 3090 3089 3086 3086 3088 3089 3091 3089 3088 3089 3092 3092 3092 3091 3091 3093 3095 3098 3099 3101 3104 3106 3109 3114 3118 3122 3126 3130 3132 3134 3132 3133 3131 3133 3134 3139 3143 3147 3151 3156
3104 3099 3095 3093 3090 3089 3086 3085 3086 3090 3087 3088 3086 3086 3088 3089 3089 3090 3090 3090 3091 3091 3092 3096 3099 3102 3103 3108 3111 3116 3121 3122 3127 3130 3125 3125 3130 3123 3125 3129 3136 3140 3143 3147 3151
3099 3095 3091 3089 3088 3086 3085 3085 3088 3086 3087 3086 3085 3084 3085 3086 3086 3086 3088 3088 3088 3090 3090 3091 3094 3098 3102 3104 3106 3112 3117 3119 3122 3118 3110 3121 3122 3118 3121 3125 3131 3136 3139 3143 3145
3095 3091 3088 3085 3083 3082 3082 3083 3084 3083 3083 3082 3083 3083 3083 3084 3084 3084 3084 3084 3085 3086 3086 3087 3090 3092 3095 3098 3102 3104 3110 3107 3106 3104 3108 3115 3104 3106 3118 3121 3126 3130 3135 3138 3139
3091 3088 3084 3082 3079 3078 3079 3080 3079 3080 3081 3080 3081 3080 3081 3081 3083 3082 3082 3082 3081 3082 3085 3084 3084 3084 3087 3091 3098 3101 3100 3107 3107 3104 3104 3099 3104 3105 3111 3115 3121 3125 3130 3131 3133
3089 3085 3082 3079 3076 3075 3076 3077 3077 3078 3078 3079 3080 3080 3080 3080 3081 3081 3080 3080 3080 3080 3081 3081 3082 3080 3082 3085 3089 3093 3098 3103 3104 3100 3098 3093 3096 3096 3102 3108 3114 3118 3123 3127 3129
3085 3082 3079 3076 3073 3073 3073 3074 3074 3075 3076 3078 3078 3078 3077 3077 3078 3079 3079 3079 3078 3078 3079 3079 3079 3078 3079 3080 3083 3086 3089 3092 3093 3093 3089 3091 3088 3092 3099 3104 3109 3113 3117 3123 3125
3082 3079 3076 3073 3072 3070 3070 3071 3072 3072 3073 3073 3073 3073 3074 3074 3075 3076 3076 3076 3076 3076 3076 3076 3075 3074 3073 3074 3076 3077 3080 3084 3084 3085 3087 3088 3084 3091 3095 3100 3103 3106 3110 3115 3119
3078 3076 3073 3070 3069 3068 3068 3069 3070 3070 3070 3069 3070 3070 3071 3072 3074 3071 3071 3072 3073 3073 3073 3073 3073 3073 3070 3072 3072 3072 3072 3074 3077 3081 3081 3082 3082 3090 3092 3095 3100 3103 3106 3108 3111
3076 3073 3070 3068 3067 3067 3067 3067 3068 3067 3067 3067 3068 3068 3068 3068 3068 3067 3068 3068 3069 3071 3070 3070 3070 3070 3066 3067 3068 3069 3068 3069 3071 3074 3077 3077 3080 3083 3088 3091 3093 3096 3100 3103 3106
3075 3072 3070 3069 3067 3067 3067 3068 3067 3067 3066 3065 3065 3065 3066 3065 3064 3063 3063 3065 3066 3067 3067 3068 3067 3067 3064 3063 3063 3062 3063 3064 3065 3068 3069 3075 3075 3079 3082 3083 3084 3088 3091 3094 3098
3074 3072 3068 3067 3067 3067 3066 3066 3066 3066 3065 3063 3063 3063 3063 3063 3062 3061 3061 3062 3062 3063 3063 3063 3064 3062 3060 3059 3058 3054 3055 3057 3058 3060 3062 3066 3068 3072 3076 3077 3079 3080 3085 3088 3090
3075 3071 3070 3068 3067 3067 3067 3066 3065 3063 3063 3061 3060 3059 3058 3058 3056 3055 3055 3056 3056 3058 3059 3060 3061 3062 3058 3056 3053 3050 3046 3047 3051 3053 3059 3061 3065 3068 3072 3075 3076 3077 3079 3083 3086
Wind_Speed
14 14 14 14 15 15 15 15 14 14 14 15 13 12 10 10 9 5 7 13 17 19 19 20 22 23 22 18 15 11 7 12 5 5 2 9 9 11 8 8 6 4 2 15 30
15 15 16 15 15 15 15 15 14 13 13 14 15 14 12 10 9 8 14 11 14 20 18 18 21 24 25 21 19 14 13 6 9 6 7 10 11 7 4 3 3 5 7 22 30
16 17 17 18 19 18 17 16 16 15 14 13 14 14 14 12 10 11 13 16 12 15 20 18 18 20 24 22 21 18 12 11 10 6 6 10 11 9 7 5 3 2 11 21 28
17 18 18 19 20 20 20 19 18 16 15 15 13 14 13 12 7 9 9 13 16 15 22 23 23 22 24 26 24 21 16 13 10 8 7 10 7 4 4 2 3 4 7 13 27
19 21 21 20 20 21 21 21 21 17 15 16 15 13 14 13 15 12 12 7 7 15 19 22 21 21 23 25 26 25 16 15 17 12 11 11 8 8 5 4 2 2 9 15 26
18 20 21 21 20 20 20 22 22 20 17 16 16 14 12 15 17 18 18 16 11 11 18 22 20 18 18 23 26 22 24 14 21 13 15 13 12 12 7 4 4 3 5 18 24
20 22 24 24 24 23 20 21 23 20 17 17 18 15 13 15 15 19 19 19 17 15 17 19 22 19 19 14 20 27 17 23 22 16 16 13 13 14 9 5 9 3 4 18 26
21 24 28 28 27 25 21 20 20 19 16 16 18 14 13 11 17 20 20 20 20 19 21 20 22 21 20 20 15 23 20 18 24 19 17 15 9 12 9 8 11 7 5 16 24
23 25 28 29 29 25 18 18 18 20 15 11 13 10 5 8 16 23 22 21 21 22 25 24 27 26 24 19 15 19 16 23 20 22 19 18 12 11 8 11 12 13 9 17 24
24 26 27 27 25 23 16 15 15 15 9 9 5 6 7 8 12 19 24 22 25 24 26 30 32 32 30 29 21 17 23 19 23 22 20 20 18 15 13 10 11 15 11 18 23
25 25 25 24 23 23 18 14 12 7 7 7 7 8 9 7 8 15 20 24 25 29 29 32 36 42 36 31 22 18 14 17 24 18 20 21 20 19 19 18 14 18 15 11 18
25 25 26 23 22 19 15 14 13 9 5 3 3 4 4 2 8 11 12 18 28 31 33 33 41 33 33 33 29 23 16 14 21 19 21 18 22 22 23 17 16 20 17 12 14
25 25 25 23 23 19 16 14 11 9 5 6 7 4 0 6 6 6 7 12 21 28 32 30 22 32 33 34 32 30 25 20 17 17 16 18 19 26 26 25 25 23 24 20 16
26 25 23 20 20 16 12 8 8 6 4 5 6 6 3 4 4 4 5 11 14 22 26 25 31 8 15 35 33 29 32 24 23 12 16 17 19 26 28 26 27 27 27 27 25
26 24 23 19 18 15 11 9 5 1 2 2 6 9 7 4 5 3 6 10 16 18 24 19 16 29 15 19 30 27 24 32 26 19 16 16 13 27 20 27 26 28 26 23 24
25 24 21 17 15 14 12 7 3 0 2 3 7 7 7 10 9 6 3 7 13 19 22 20 25 12 24 25 17 21 9 13 19 24 24 30 18 26 27 30 28 26 28 26 24
23 21 19 16 11 12 10 7 1 3 4 4 7 10 11 8 10 12 9 5 9 8 15 23 24 21 21 11 15 21 21 7 10 14 18 25 26 33 18 29 35 26 23 19 22
21 18 18 14 13 11 10 6 5 6 7 8 10 14 9 6 7 6 6 6 6 6 8 13 12 27 23 22 16 24 26 15 12 12 17 25 18 31 36 11 9 23 19 15 20
18 18 15 15 12 12 10 4 4 8 8 9 10 8 6 2 3 5 6 8 6 7 5 4 9 19 29 32 23 18 36 30 12 5 13 25 30 31 24 23 33 30 25 19 16
18 19 17 16 14 9 5 5 7 8 7 9 7 6 5 9 8 4 4 4 5 6 5 5 7 15 19 28 31 25 19 25 26 19 13 10 24 26 32 38 31 24 28 20 16
20 20 18 16 11 5 3 3 6 9 10 7 7 9 12 12 10 8 6 9 10 10 12 12 9 8 16 15 19 28 23 18 22 31 15 10 14 15 28 23 21 28 35 22 18
20 15 14 13 8 6 3 4 6 10 10 10 12 13 11 12 11 11 10 12 8 8 9 11 7 11 18 11 17 23 21 27 22 18 32 29 31 7 13 19 17 20 25 27 28
19 12 17 10 7 7 4 2 3 5 7 4 6 9 11 10 6 10 11 13 13 12 5 5 5 5 12 17 20 14 19 28 31 25 21 19 26 23 25 22 17 11 14 20 28
20 17 20 14 12 7 5 4 5 6 7 6 7 6 7 10 16 11 13 12 13 12 11 10 12 11 13 5 4 5 15 16 12 22 29 29 19 14 16 29 28 21 17 15 18
23 20 17 13 11 9 8 8 8 8 6 8 5 6 5 4 6 9 10 9 10 14 15 10 9 13 20 21 21 23 21 19 16 15 21 27 28 27 19 21 29 24 21 17 15
21 18 16 14 12 8 9 11 11 10 9 6 7 7 8 11 12 12 10 12 15 12 12 16 8 13 21 17 16 24 25 26 25 22 19 22 29 28 33 26 24 27 28 25 22
19 20 17 13 12 13 13 12 10 12 6 10 11 13 13 12 13 16 16 18 21 17 15 18 10 7 13 11 16 17 23 28 22 19 19 22 28 32 29 29 32 29 29 25 25
Wind_Direction
335 334 332 328 325 322 319 317 311 305 300 297 294 290 283 279 281 261 240 223 212 211 212 208 209 210 212 203 208 216 180 155 139 108 123 164 171 180 188 228 255 264 184 175 169
345 343 342 339 334 329 327 325 318 308 300 293 289 284 279 271 265 249 235 244 234 220 216 216 214 211 210 205 207 209 197 173 146 134 118 147 165 167 127 15 282 239 179 166 178
347 345 346 343 339 335 333 328 318 314 308 297 289 281 273 267 262 250 234 240 237 220 212 208 214 217 217 210 211 213 202 165 161 161 163 135 154 166 207 43 50 67 179 170 188
341 340 342 343 341 338 340 335 323 318 313 306 292 283 270 255 250 226 218 226 230 218 215 214 208 211 213 214 214 217 202 182 175 186 176 154 171 184 197 235 10 144 153 193 187
339 340 342 342 336 336 340 338 337 324 316 307 301 286 271 248 230 221 202 184 191 213 218 220 220 215 210 217 220 219 213 207 192 191 180 192 175 198 205 214 293 343 199 183 194
337 334 333 332 329 324 333 339 335 330 315 309 305 297 270 247 230 224 223 220 214 211 215 213 220 219 222 222 219 226 221 203 192 191 198 203 192 202 194 239 234 289 206 185 188
337 332 328 325 321 319 322 327 335 329 309 308 308 306 284 253 227 221 221 217 207 203 204 212 212 213 221 230 226 225 231 213 195 185 201 208 207 214 223 253 200 213 190 180 180
340 337 332 332 327 320 317 323 334 328 309 309 311 321 300 248 219 214 208 209 200 197 187 203 215 213 215 222 226 220 223 219 207 194 198 202 222 228 239 241 205 205 205 185 178
336 337 336 333 332 329 315 319 327 328 316 318 318 321 310 258 217 210 201 199 194 196 185 194 211 214 214 216 218 218 215 214 208 202 199 210 219 212 227 225 237 215 207 189 181
337 337 334 333 333 339 328 316 321 328 330 340 358 328 336 316 236 221 207 198 196 190 185 192 206 213 212 210 208 208 209 211 210 205 208 221 221 220 236 258 251 205 202 193 190
333 337 332 332 332 337 341 326 328 335 330 356 6 355 333 320 220 224 221 201 197 203 200 198 206 212 210 215 212 220 222 213 217 203 214 223 227 230 241 244 238 208 199 181 198
332 337 336 336 331 324 324 327 324 330 323 309 303 19 345 280 219 226 226 214 213 212 208 210 218 222 218 218 217 220 219 219 224 214 220 228 237 244 243 246 245 228 215 206 194
330 337 337 335 333 321 311 308 304 299 272 253 231 229 289 178 175 193 230 226 218 214 211 215 225 233 227 225 220 221 224 217 215 222 222 227 244 242 241 244 241 238 238 230 227
325 332 334 337 342 330 322 314 295 287 249 224 234 251 265 198 216 194 205 216 226 220 218 232 226 234 232 231 224 227 223 220 220 224 230 223 241 236 244 239 233 233 237 241 234
319 328 336 342 341 338 340 350 349 9 218 245 230 257 233 248 268 279 231 209 220 219 215 218 232 227 234 227 226 231 239 229 228 238 257 236 237 236 234 229 226 230 234 236 233
318 330 334 338 335 333 328 325 330 180 194 246 254 266 251 245 267 269 266 228 218 215 225 226 234 221 238 246 253 235 240 227 233 238 245 234 231 241 228 232 230 233 237 240 248
326 330 333 335 326 316 310 309 252 199 253 274 269 288 291 282 274 272 264 239 216 217 218 226 223 226 229 215 227 219 209 201 210 216 235 227 231 227 229 239 240 239 234 235 244
329 334 333 335 325 315 301 290 214 224 231 260 288 301 309 315 292 285 301 285 256 221 237 218 213 217 220 227 219 208 204 201 214 218 228 220 234 228 231 216 224 234 234 244 243
337 346 343 335 329 308 291 235 211 229 249 267 295 302 269 258 325 316 319 290 258 228 212 219 235 211 212 219 218 215 216 219 252 247 238 227 242 245 233 241 244 247 250 259 239
341 348 339 333 330 322 287 219 221 236 256 287 296 272 253 269 306 302 296 258 271 250 237 245 262 220 215 213 218 212 223 206 224 237 234 216 232 229 230 236 241 245 247 254 228
340 345 338 340 345 340 313 244 239 254 266 269 248 254 264 268 269 265 262 271 254 257 271 264 248 234 220 216 214 209 207 208 225 226 228 236 236 233 230 234 249 253 250 244 210
342 349 347 353 345 333 314 291 274 279 281 266 263 257 252 253 254 259 255 244 259 260 269 259 260 255 237 218 212 206 210 221 223 212 233 244 238 213 186 190 221 225 235 237 235
360 4 356 10 358 8 356 325 290 306 310 301 248 244 253 246 258 243 241 236 235 250 256 228 244 267 252 242 231 227 221 217 221 228 230 224 240 241 233 232 227 209 192 222 233
4 5 358 2 11 15 34 34 3 345 335 343 318 293 287 262 256 241 224 221 228 240 253 249 244 234 256 301 283 226 206 204 207 221 228 234 241 236 237 234 238 237 231 205 222
6 4 6 4 21 28 21 6 351 355 327 325 327 284 274 284 296 256 225 234 236 237 258 244 251 254 257 273 277 276 242 233 235 222 224 233 238 241 231 227 234 229 223 227 232
7 8 11 14 35 30 17 21 12 357 355 8 339 310 292 291 290 261 256 241 239 249 245 235 254 272 277 280 296 276 259 250 243 236 245 220 229 236 233 230 237 236 232 233 228
22 21 22 26 25 33 25 9 359 347 334 331 311 304 301 290 275 275 268 252 249 250 240 235 239 279 268 310 313 275 256 239 235 237 227 228 222 236 234 239 245 254 247 239 235